sat.trackr.live / text

‹ back to catalog

STARLINK-31574

NORAD 59543 · 2024-074K

PAYLOAD ACTIVE UNKNOWN

§ Identity

Operator
Country
US
Launch date
2024-04-18
Launch site
AFETR
Launch vehicle
Mass (kg)
RCS (m²)

Purposes: comms

External: N2YO · Heavens-Above · Gunter

§ Orbital elements

Epoch: 2026-09-21T11:05:19.103424Z

Period
94.27 min
Inclination
43.0023°
Eccentricity
0.0001072
Mean motion
15.27580119 rev/d
Perigee alt
482.3 km
Apogee alt
483.8 km
Semi-major
6,861.2 km
B*
2.9434e-5
RAAN
318.0346°
Arg perigee
274.2891°
Mean anomaly
85.7838°
Rev number
13,595

§ Raw data

STARLINK-315741 59543U 24074K   26264.46202666  .00000548  00000+0  29434-4 0  99972 59543  43.0023 318.0346 0001072 274.2891  85.7838 15.27580119135959

JSON: /api/v1/satellites/59543 · /tle

For live sub-satellite position, see the globe view (requires WebGL).

§ Visibility from observer

Set your observer location to see the next 7 days of passes ≥ 10°. The values pass through the URL so the page stays shareable.

No JS? Fill the form by hand. The geolocation button needs JavaScript.